Regional Weather Roundup
Issued by NWS Huntsville, AL

Home | Current Version | Previous Version | Text Only | Print | Product List | Glossary On
Versions: 1 2 3 4 5 6 7 8 9 10 11 12 13 14 15 16 17 18 19 20 21 22 23 24 25 26 27 28 29 30 31 32 33 34 35 36 37 38 39 40 41 42 43 44 45 46 47 48 49 50
000
ASUS44 KHUN 040810
RWRHUN

WEATHER ROUNDUP FOR THE TENNESSEE VALLEY
NATIONAL WEATHER SERVICE HUNTSVILLE AL
300 AM CDT WED MAY 04 2016

ALZ001>004-040900-
NORTHWEST ALABAMA

CITY           SKY/WX    TMP DP  RH WIND       PRES   REMARKS
SHOALS AIRPORT CLEAR     52  48  86 W5        29.92F
$$

ALZ005>007-016-040900-
NORTH CENTRAL ALABAMA

CITY           SKY/WX    TMP DP  RH WIND       PRES   REMARKS
DECATUR AP     CLEAR     51  49  92 NW5       29.90F
HUNTSVILLE AP  CLEAR     52  48  86 NW3       29.90F
HUN NWS/UAH      N/A     54  47  79 W2          N/A
MERIDIANVILLE  CLEAR     48  45  87 CALM      29.89F
REDSTONE ARSN  CLEAR     50  48  93 NW5       29.89F
VINEMONT AP    FAIR      49  48  94 CALM      29.92F
$$

ALZ008>010-040900-
NORTHEAST ALABAMA

CITY           SKY/WX    TMP DP  RH WIND       PRES   REMARKS
ALBERTVILLE    PTCLDY    54  52  94 CALM      29.88S
FORT PAYNE     CLEAR     50  45  81 CALM      29.87S
SCOTTSBORO AP  PTCLDY    54  48  82 CALM      29.89S
SCOTTSBORO HCN   N/A     50 N/A N/A MISG        N/A
VALLEY HEAD      N/A     50 N/A N/A MISG        N/A
$$

TNZ076-096-097-040900-
SOUTHEASTERN MIDDLE TENNESSEE

CITY           SKY/WX    TMP DP  RH WIND       PRES   REMARKS
TULLAHOMA      CLEAR     46  46 100 NW6       29.89S
WINCHESTER     CLEAR     46  45  93 CALM      29.89F
$$

...SURROUNDING SITES...

CITY           SKY/WX    TMP DP  RH WIND       PRES   REMARKS
ATLANTA        PTCLDY    57  49  74 NW10      29.83S
ANNISTON       CLEAR     55  50  83 VRB3      29.87F
BIRMINGHAM     CLEAR     55  51  86 N3        29.91F
CHATTANOOGA    CLEAR     55  46  71 CALM      29.86F
DALTON         CLEAR     54  50  87 CALM      29.85S
GADSDEN        CLEAR     55  50  83 W8        29.89S
GOLDEN TRNGL   CLEAR     52  48  87 NW3       29.93F
HALEYVILLE     FAIR      48  47  96 CALM      29.93F
JACKSON TN     CLEAR     49  47  93 S3        29.91F
MEMPHIS        CLEAR     54  49  83 W5        29.93F
NASHVILLE      CLEAR     51  46  83 W3        29.88F
OXFORD MS      FAIR      45  45 100 CALM      29.96F
ROME           CLEAR     56  49  77 NW5       29.84F
SAVANNAH       CLEAR     46  46 100 CALM      29.91F
TUPELO         CLEAR     52  48  86 CALM      29.93F
TUSCALOOSA     CLEAR     56  51  84 NW3       29.92F
$$

...GULF COAST WEATHER...

CITY           SKY/WX    TMP DP  RH WIND       PRES   REMARKS
GULFPORT       CLEAR     61  54  77 N7        29.92S
PASCAGOULA     CLEAR     61  55  81 N13       29.91S
MOBILE         MOCLDY    60  56  86 N15       29.92S
GULF SHORES    PTSUNNY   64  61  89 NW9       29.87F
DESTIN         CLOUDY    72  65  78 NW10      29.84F
PANAMA CITY    CLEAR     71  65  82 N9        29.81F
APPALACHICOLA  PTCLDY    70  70 100 N7        29.80F
$$




USA.gov is the U.S. government's official web portal to all federal, state and local government web resources and services.